Main page
METAR-TAF:

METAR-TAF

Airports :

Iranshahr, Iran

latitude: 27-12N, longitude: 060-42E, elevation: 591 m

Current weather observation

The report was made 22 minutes ago, at 05:00 UTC
Calm wind
Temperature 31°C
Humidity 22%
Pressure 1012 hPa
Visibility: 8000 m

METAR: OIZI 200500Z 00000KT 8000 NSC 31/07 Q1012

Time: 09:52 (05:22 UTC)


TAF: missing

Weather observations and forecasts of more than 4000 airports (METAR and TAF reports).

The available stations are represented by yellow and red dots on the map.

Hover mouse over dot to see the name of the station.

Then click to see weather observations and forecasts.

To change the map : click on the green buttons with a black cross to zoom in, on the green button with a dash to zoom out, or on the green arrows for adjacent maps.


METAR-TAF: